Year,Month,Day,Hour,Minute,Value (Times are PST for temperature in C)
2013,07,28,00,00,14.80
2013,07,28,00,01,14.80
2013,07,28,00,02,14.80
2013,07,28,00,03,14.80
2013,07,28,00,04,14.70
2013,07,28,00,05,14.60
2013,07,28,00,06,14.60
2013,07,28,00,07,14.60
2013,07,28,00,08,14.50
2013,07,28,00,09,14.50
2013,07,28,00,10,14.50
2013,07,28,00,11,14.50
2013,07,28,00,12,14.40
2013,07,28,00,13,14.40
2013,07,28,00,14,14.30
2013,07,28,00,15,14.20
2013,07,28,00,16,14.20
2013,07,28,00,17,14.20
2013,07,28,00,18,14.10
2013,07,28,00,19,14.10
2013,07,28,00,20,14.10
2013,07,28,00,21,14.10
2013,07,28,00,22,14.00
2013,07,28,00,23,14.00
2013,07,28,00,24,14.00
2013,07,28,00,25,14.00
2013,07,28,00,26,13.90
2013,07,28,00,27,13.90
2013,07,28,00,28,13.90
2013,07,28,00,29,13.90
2013,07,28,00,30,13.80
2013,07,28,00,31,13.80
2013,07,28,00,32,13.80
2013,07,28,00,33,13.70
2013,07,28,00,34,13.70
2013,07,28,00,35,13.70
2013,07,28,00,36,13.70
2013,07,28,00,37,13.70
2013,07,28,00,38,13.70
2013,07,28,00,39,13.70
2013,07,28,00,40,13.70
2013,07,28,00,41,13.60
2013,07,28,00,42,13.60
2013,07,28,00,43,13.60
2013,07,28,00,44,13.60
2013,07,28,00,45,13.50
2013,07,28,00,46,13.50
2013,07,28,00,47,13.50
2013,07,28,00,48,13.50
2013,07,28,00,49,13.40
2013,07,28,00,50,13.40
2013,07,28,00,51,13.40
2013,07,28,00,52,13.40
2013,07,28,00,53,13.40
2013,07,28,00,54,13.40
2013,07,28,00,55,13.40
2013,07,28,00,56,13.40
2013,07,28,00,57,13.40
2013,07,28,00,58,13.30
2013,07,28,00,59,13.30
2013,07,28,01,00,13.30
2013,07,28,01,01,13.30
2013,07,28,01,02,13.20
2013,07,28,01,03,13.20
2013,07,28,01,04,13.20
2013,07,28,01,05,13.20
2013,07,28,01,06,13.20
2013,07,28,01,07,13.10
2013,07,28,01,08,13.10
2013,07,28,01,09,13.10
2013,07,28,01,10,13.10
2013,07,28,01,11,13.10
2013,07,28,01,12,13.00
2013,07,28,01,13,13.00
2013,07,28,01,14,13.00
2013,07,28,01,15,12.90
2013,07,28,01,16,12.90
2013,07,28,01,17,12.90
2013,07,28,01,18,12.80
2013,07,28,01,19,12.80
2013,07,28,01,20,12.80
2013,07,28,01,21,12.80
2013,07,28,01,22,12.70
2013,07,28,01,23,12.70
2013,07,28,01,24,12.60
2013,07,28,01,25,12.60
2013,07,28,01,26,12.50
2013,07,28,01,27,12.50
2013,07,28,01,28,12.50
2013,07,28,01,29,12.40
2013,07,28,01,30,12.40
2013,07,28,01,31,12.40
2013,07,28,01,32,12.40
2013,07,28,01,33,12.30
2013,07,28,01,34,12.30
2013,07,28,01,35,12.30
2013,07,28,01,36,12.30
2013,07,28,01,37,12.30
2013,07,28,01,38,12.30
2013,07,28,01,39,12.30
2013,07,28,01,40,12.20
2013,07,28,01,41,12.20
2013,07,28,01,42,12.20
2013,07,28,01,43,12.20
2013,07,28,01,44,12.20
2013,07,28,01,45,12.20
2013,07,28,01,46,12.10
2013,07,28,01,47,12.10
2013,07,28,01,48,12.10
2013,07,28,01,49,12.10
2013,07,28,01,50,12.10
2013,07,28,01,51,12.00
2013,07,28,01,52,12.00
2013,07,28,01,53,12.00
2013,07,28,01,54,12.00
2013,07,28,01,55,12.00
2013,07,28,01,56,12.00
2013,07,28,01,57,11.90
2013,07,28,01,58,11.90
2013,07,28,01,59,11.90
2013,07,28,02,00,11.90
2013,07,28,02,01,11.80
2013,07,28,02,02,11.80
2013,07,28,02,03,11.80
2013,07,28,02,04,11.80
2013,07,28,02,05,11.80
2013,07,28,02,06,11.80
2013,07,28,02,07,11.80
2013,07,28,02,08,11.80
2013,07,28,02,09,11.80
2013,07,28,02,10,11.80
2013,07,28,02,11,11.80
2013,07,28,02,12,11.80
2013,07,28,02,13,11.80
2013,07,28,02,14,11.80
2013,07,28,02,15,11.80
2013,07,28,02,16,11.80
2013,07,28,02,17,11.80
2013,07,28,02,18,11.80
2013,07,28,02,19,11.80
2013,07,28,02,20,11.80
2013,07,28,02,21,11.80
2013,07,28,02,22,11.80
2013,07,28,02,23,11.70
2013,07,28,02,24,11.70
2013,07,28,02,25,11.70
2013,07,28,02,26,11.70
2013,07,28,02,27,11.70
2013,07,28,02,28,11.70
2013,07,28,02,29,11.60
2013,07,28,02,30,11.60
2013,07,28,02,31,11.60
2013,07,28,02,32,11.60
2013,07,28,02,33,11.60
2013,07,28,02,34,11.60
2013,07,28,02,35,11.60
2013,07,28,02,36,11.50
2013,07,28,02,37,11.40
2013,07,28,02,38,11.40
2013,07,28,02,39,11.40
2013,07,28,02,40,11.40
2013,07,28,02,41,11.40
2013,07,28,02,42,11.40
2013,07,28,02,43,11.40
2013,07,28,02,44,11.40
2013,07,28,02,45,11.40
2013,07,28,02,46,11.40
2013,07,28,02,47,11.40
2013,07,28,02,48,11.40
2013,07,28,02,49,11.30
2013,07,28,02,50,11.30
2013,07,28,02,51,11.30
2013,07,28,02,52,11.30
2013,07,28,02,53,11.30
2013,07,28,02,54,11.30
2013,07,28,02,55,11.30
2013,07,28,02,56,11.30
2013,07,28,02,57,11.30
2013,07,28,02,58,11.20
2013,07,28,02,59,11.20
2013,07,28,03,00,11.20
2013,07,28,03,01,11.20
2013,07,28,03,02,11.20
2013,07,28,03,03,11.20
2013,07,28,03,04,11.20
2013,07,28,03,05,11.20
2013,07,28,03,06,11.10
2013,07,28,03,07,11.10
2013,07,28,03,08,11.10
2013,07,28,03,09,11.10
2013,07,28,03,10,11.10
2013,07,28,03,11,11.10
2013,07,28,03,12,11.10
2013,07,28,03,13,11.10
2013,07,28,03,14,11.10
2013,07,28,03,15,11.10
2013,07,28,03,16,11.10
2013,07,28,03,17,11.10
2013,07,28,03,18,11.10
2013,07,28,03,19,11.10
2013,07,28,03,20,11.10
2013,07,28,03,21,11.10
2013,07,28,03,22,11.00
2013,07,28,03,23,10.90
2013,07,28,03,24,10.90
2013,07,28,03,25,10.90
2013,07,28,03,26,10.90
2013,07,28,03,27,10.90
2013,07,28,03,28,10.90
2013,07,28,03,29,10.90
2013,07,28,03,30,11.00
2013,07,28,03,31,11.10
2013,07,28,03,32,11.10
2013,07,28,03,33,11.10
2013,07,28,03,34,11.10
2013,07,28,03,35,11.00
2013,07,28,03,36,10.90
2013,07,28,03,37,10.90
2013,07,28,03,38,10.90
2013,07,28,03,39,10.90
2013,07,28,03,40,10.90
2013,07,28,03,41,10.90
2013,07,28,03,42,10.90
2013,07,28,03,43,10.90
2013,07,28,03,44,10.90
2013,07,28,03,45,10.90
2013,07,28,03,46,10.90
2013,07,28,03,47,10.90
2013,07,28,03,48,10.90
2013,07,28,03,49,10.90
2013,07,28,03,50,10.90
2013,07,28,03,51,10.90
2013,07,28,03,52,10.80
2013,07,28,03,53,10.80
2013,07,28,03,54,10.80
2013,07,28,03,55,10.80
2013,07,28,03,56,10.80
2013,07,28,03,57,10.80
2013,07,28,03,58,10.80
2013,07,28,03,59,10.80
2013,07,28,04,00,10.80
2013,07,28,04,01,10.80
2013,07,28,04,02,10.80
2013,07,28,04,03,10.70
2013,07,28,04,04,10.70
2013,07,28,04,05,10.70
2013,07,28,04,06,10.70
2013,07,28,04,07,10.70
2013,07,28,04,08,10.70
2013,07,28,04,09,10.70
2013,07,28,04,10,10.70
2013,07,28,04,11,10.70
2013,07,28,04,12,10.70
2013,07,28,04,13,10.70
2013,07,28,04,14,10.70
2013,07,28,04,15,10.70
2013,07,28,04,16,10.70
2013,07,28,04,17,10.70
2013,07,28,04,18,10.60
2013,07,28,04,19,10.60
2013,07,28,04,20,10.60
2013,07,28,04,21,10.60
2013,07,28,04,22,10.60
2013,07,28,04,23,10.60
2013,07,28,04,24,10.60
2013,07,28,04,25,10.60
2013,07,28,04,26,10.60
2013,07,28,04,27,10.60
2013,07,28,04,28,10.60
2013,07,28,04,29,10.60
2013,07,28,04,30,10.60
2013,07,28,04,31,10.60
2013,07,28,04,32,10.60
2013,07,28,04,33,10.60
2013,07,28,04,34,10.60
2013,07,28,04,35,10.60
2013,07,28,04,36,10.60
2013,07,28,04,37,10.60
2013,07,28,04,38,10.60
2013,07,28,04,39,10.60
2013,07,28,04,40,10.60
2013,07,28,04,41,10.60
2013,07,28,04,42,10.50
2013,07,28,04,43,10.40
2013,07,28,04,44,10.50
2013,07,28,04,45,10.50
2013,07,28,04,46,10.40
2013,07,28,04,47,10.40
2013,07,28,04,48,10.40
2013,07,28,04,49,10.40
2013,07,28,04,50,10.40
2013,07,28,04,51,10.40
2013,07,28,04,52,10.40
2013,07,28,04,53,10.40
2013,07,28,04,54,10.40
2013,07,28,04,55,10.40
2013,07,28,04,56,10.40
2013,07,28,04,57,10.40
2013,07,28,04,58,10.40
2013,07,28,04,59,10.40
2013,07,28,05,00,10.40
2013,07,28,05,01,10.40
2013,07,28,05,02,10.40
2013,07,28,05,03,10.40
2013,07,28,05,04,10.30
2013,07,28,05,05,10.30
2013,07,28,05,06,10.30
2013,07,28,05,07,10.30
2013,07,28,05,08,10.30
2013,07,28,05,09,10.30
2013,07,28,05,10,10.30
2013,07,28,05,11,10.30
2013,07,28,05,12,10.30
2013,07,28,05,13,10.30
2013,07,28,05,14,10.30
2013,07,28,05,15,10.30
2013,07,28,05,16,10.30
2013,07,28,05,17,10.30
2013,07,28,05,18,10.30
2013,07,28,05,19,10.30
2013,07,28,05,20,10.20
2013,07,28,05,21,10.20
2013,07,28,05,22,10.20
2013,07,28,05,23,10.20
2013,07,28,05,24,10.20
2013,07,28,05,25,10.20
2013,07,28,05,26,10.20
2013,07,28,05,27,10.20
2013,07,28,05,28,10.20
2013,07,28,05,29,10.20
2013,07,28,05,30,10.20
2013,07,28,05,31,10.10
2013,07,28,05,32,10.10
2013,07,28,05,33,10.10
2013,07,28,05,34,10.10
2013,07,28,05,35,10.10
2013,07,28,05,36,10.10
2013,07,28,05,37,10.10
2013,07,28,05,38,10.10
2013,07,28,05,39,10.10
2013,07,28,05,40,10.10
2013,07,28,05,41,10.10
2013,07,28,05,42,10.10
2013,07,28,05,43,10.10
2013,07,28,05,44,10.10
2013,07,28,05,45,10.10
2013,07,28,05,46,10.10
2013,07,28,05,47,10.10
2013,07,28,05,48,10.20
2013,07,28,05,49,10.20
2013,07,28,05,50,10.20
2013,07,28,05,51,10.20
2013,07,28,05,52,10.20
2013,07,28,05,53,10.20
2013,07,28,05,54,10.20
2013,07,28,05,55,10.20
2013,07,28,05,56,10.20
2013,07,28,05,57,10.20
2013,07,28,05,58,10.20
2013,07,28,05,59,10.20
2013,07,28,06,00,10.20
2013,07,28,06,01,10.20
2013,07,28,06,02,10.20
2013,07,28,06,03,10.20
2013,07,28,06,04,10.20
2013,07,28,06,05,10.20
2013,07,28,06,06,10.30
2013,07,28,06,07,10.30
2013,07,28,06,08,10.30
2013,07,28,06,09,10.30
2013,07,28,06,10,10.30
2013,07,28,06,11,10.40
2013,07,28,06,12,10.40
2013,07,28,06,13,10.40
2013,07,28,06,14,10.40
2013,07,28,06,15,10.40
2013,07,28,06,16,10.40
2013,07,28,06,17,10.40
2013,07,28,06,18,10.40
2013,07,28,06,19,10.40
2013,07,28,06,20,10.50
2013,07,28,06,21,10.60
2013,07,28,06,22,10.60
2013,07,28,06,23,10.60
2013,07,28,06,24,10.60
2013,07,28,06,25,10.60
2013,07,28,06,26,10.60
2013,07,28,06,27,10.60
2013,07,28,06,28,10.70
2013,07,28,06,29,10.70
2013,07,28,06,30,10.80
2013,07,28,06,31,10.80
2013,07,28,06,32,10.90
2013,07,28,06,33,10.90
2013,07,28,06,34,10.90
2013,07,28,06,35,10.90
2013,07,28,06,36,11.10
2013,07,28,06,37,11.10
2013,07,28,06,38,11.10
2013,07,28,06,39,11.10
2013,07,28,06,40,11.20
2013,07,28,06,41,11.20
2013,07,28,06,42,11.30
2013,07,28,06,43,11.30
2013,07,28,06,44,11.40
2013,07,28,06,45,11.40
2013,07,28,06,46,11.40
2013,07,28,06,47,11.40
2013,07,28,06,48,11.50
2013,07,28,06,49,11.60
2013,07,28,06,50,11.60
2013,07,28,06,51,11.60
2013,07,28,06,52,11.70
2013,07,28,06,53,11.70
2013,07,28,06,54,11.80
2013,07,28,06,55,11.80
2013,07,28,06,56,11.80
2013,07,28,06,57,11.90
2013,07,28,06,58,11.90
2013,07,28,06,59,12.00
2013,07,28,07,00,12.00
2013,07,28,07,01,12.10
2013,07,28,07,02,12.20
2013,07,28,07,03,12.20
2013,07,28,07,04,12.30
2013,07,28,07,05,12.30
2013,07,28,07,06,12.40
2013,07,28,07,07,12.50
2013,07,28,07,08,12.60
2013,07,28,07,09,12.80
2013,07,28,07,10,12.90
2013,07,28,07,11,13.00
2013,07,28,07,12,13.10
2013,07,28,07,13,13.10
2013,07,28,07,14,13.20
2013,07,28,07,15,13.30
2013,07,28,07,16,13.30
2013,07,28,07,17,13.40
2013,07,28,07,18,13.50
2013,07,28,07,19,13.50
2013,07,28,07,20,13.60
2013,07,28,07,21,13.60
2013,07,28,07,22,13.70
2013,07,28,07,23,13.70
2013,07,28,07,24,13.70
2013,07,28,07,25,13.70
2013,07,28,07,26,13.70
2013,07,28,07,27,13.80
2013,07,28,07,28,13.70
2013,07,28,07,29,13.70
2013,07,28,07,30,13.70
2013,07,28,07,31,13.70
2013,07,28,07,32,13.60
2013,07,28,07,33,13.60
2013,07,28,07,34,13.50
2013,07,28,07,35,13.50
2013,07,28,07,36,13.50
2013,07,28,07,37,13.50
2013,07,28,07,38,13.50
2013,07,28,07,39,13.40
2013,07,28,07,40,13.40
2013,07,28,07,41,13.40
2013,07,28,07,42,13.40
2013,07,28,07,43,13.30
2013,07,28,07,44,13.30
2013,07,28,07,45,13.30
2013,07,28,07,46,13.20
2013,07,28,07,47,13.20
2013,07,28,07,48,13.20
2013,07,28,07,49,13.10
2013,07,28,07,50,13.10
2013,07,28,07,51,13.10
2013,07,28,07,52,13.10
2013,07,28,07,53,13.20
2013,07,28,07,54,13.20
2013,07,28,07,55,13.20
2013,07,28,07,56,13.30
2013,07,28,07,57,13.30
2013,07,28,07,58,13.30
2013,07,28,07,59,13.40
2013,07,28,08,00,13.50
2013,07,28,08,01,13.50
2013,07,28,08,02,13.50
2013,07,28,08,03,13.50
2013,07,28,08,04,13.40
2013,07,28,08,05,13.40
2013,07,28,08,06,13.40
2013,07,28,08,07,13.40
2013,07,28,08,08,13.40
2013,07,28,08,09,13.30
2013,07,28,08,10,13.30
2013,07,28,08,11,13.30
2013,07,28,08,12,13.30
2013,07,28,08,13,13.30
2013,07,28,08,14,13.40
2013,07,28,08,15,13.40
2013,07,28,08,16,13.40
2013,07,28,08,17,13.50
2013,07,28,08,18,13.50
2013,07,28,08,19,13.50
2013,07,28,08,20,13.60
2013,07,28,08,21,13.60
2013,07,28,08,22,13.70
2013,07,28,08,23,13.80
2013,07,28,08,24,13.90
2013,07,28,08,25,13.90
2013,07,28,08,26,14.00
2013,07,28,08,27,14.00
2013,07,28,08,28,14.10
2013,07,28,08,29,14.20
2013,07,28,08,30,14.20
2013,07,28,08,31,14.30
2013,07,28,08,32,14.30
2013,07,28,08,33,14.40
2013,07,28,08,34,14.50
2013,07,28,08,35,14.50
2013,07,28,08,36,14.60
2013,07,28,08,37,14.60
2013,07,28,08,38,14.70
2013,07,28,08,39,14.70
2013,07,28,08,40,14.80
2013,07,28,08,41,14.80
2013,07,28,08,42,14.90
2013,07,28,08,43,15.00
2013,07,28,08,44,15.00
2013,07,28,08,45,15.10
2013,07,28,08,46,15.20
2013,07,28,08,47,15.30
2013,07,28,08,48,15.30
2013,07,28,08,49,15.30
2013,07,28,08,50,15.40
2013,07,28,08,51,15.50
2013,07,28,08,52,15.50
2013,07,28,08,53,15.60
2013,07,28,08,54,15.70
2013,07,28,08,55,15.70
2013,07,28,08,56,15.80
2013,07,28,08,57,15.80
2013,07,28,08,58,15.90
2013,07,28,08,59,16.00
2013,07,28,09,00,16.10
2013,07,28,09,01,16.20
2013,07,28,09,02,16.20
2013,07,28,09,03,16.30
2013,07,28,09,04,16.20
2013,07,28,09,05,16.00
2013,07,28,09,06,15.80
2013,07,28,09,07,15.60
2013,07,28,09,08,15.40
2013,07,28,09,09,15.20
2013,07,28,09,10,15.10
2013,07,28,09,11,15.00
2013,07,28,09,12,14.90
2013,07,28,09,13,14.90
2013,07,28,09,14,14.90
2013,07,28,09,15,14.90
2013,07,28,09,16,14.80
2013,07,28,09,17,14.80
2013,07,28,09,18,14.80
2013,07,28,09,19,14.80
2013,07,28,09,20,14.70
2013,07,28,09,21,14.60
2013,07,28,09,22,14.50
2013,07,28,09,23,14.50
2013,07,28,09,24,14.50
2013,07,28,09,25,14.40
2013,07,28,09,26,14.40
2013,07,28,09,27,14.30
2013,07,28,09,28,14.30
2013,07,28,09,29,14.20
2013,07,28,09,30,14.20
2013,07,28,09,31,14.20
2013,07,28,09,32,14.20
2013,07,28,09,33,14.20
2013,07,28,09,34,14.20
2013,07,28,09,35,14.20
2013,07,28,09,36,14.20
2013,07,28,09,37,14.30
2013,07,28,09,38,14.40
2013,07,28,09,39,14.40
2013,07,28,09,40,14.40
2013,07,28,09,41,14.40
2013,07,28,09,42,14.40
2013,07,28,09,43,14.30
2013,07,28,09,44,14.30
2013,07,28,09,45,14.20
2013,07,28,09,46,14.20
2013,07,28,09,47,14.10
2013,07,28,09,48,14.10
2013,07,28,09,49,14.10
2013,07,28,09,50,14.10
2013,07,28,09,51,14.10
2013,07,28,09,52,14.00
2013,07,28,09,53,14.00
2013,07,28,09,54,13.90
2013,07,28,09,55,13.90
2013,07,28,09,56,13.90
2013,07,28,09,57,13.90
2013,07,28,09,58,13.90
2013,07,28,09,59,13.90
2013,07,28,10,00,14.00
2013,07,28,10,01,13.90
2013,07,28,10,02,13.90
2013,07,28,10,03,13.90
2013,07,28,10,04,13.90
2013,07,28,10,05,13.80
2013,07,28,10,06,13.80
2013,07,28,10,07,13.70
2013,07,28,10,08,13.70
2013,07,28,10,09,13.60
2013,07,28,10,10,13.60
2013,07,28,10,11,13.50
2013,07,28,10,12,13.50
2013,07,28,10,13,13.40
2013,07,28,10,14,13.40
2013,07,28,10,15,13.30
2013,07,28,10,16,13.30
2013,07,28,10,17,13.30
2013,07,28,10,18,13.30
2013,07,28,10,19,13.30
2013,07,28,10,20,13.20
2013,07,28,10,21,13.20
2013,07,28,10,22,13.10
2013,07,28,10,23,13.10
2013,07,28,10,24,13.20
2013,07,28,10,25,13.30
2013,07,28,10,26,13.30
2013,07,28,10,27,13.30
2013,07,28,10,28,13.40
2013,07,28,10,29,13.40
2013,07,28,10,30,13.40
2013,07,28,10,31,13.40
2013,07,28,10,32,13.40
2013,07,28,10,33,13.40
2013,07,28,10,34,13.30
2013,07,28,10,35,13.30
2013,07,28,10,36,13.30
2013,07,28,10,37,13.30
2013,07,28,10,38,13.20
2013,07,28,10,39,13.10
2013,07,28,10,40,13.10
2013,07,28,10,41,13.10
2013,07,28,10,42,13.10
2013,07,28,10,43,13.00
2013,07,28,10,44,12.90
2013,07,28,10,45,12.80
2013,07,28,10,46,12.80
2013,07,28,10,47,12.80
2013,07,28,10,48,12.80
2013,07,28,10,49,12.80
2013,07,28,10,50,12.70
2013,07,28,10,51,12.70
2013,07,28,10,52,12.70
2013,07,28,10,53,12.70
2013,07,28,10,54,12.70
2013,07,28,10,55,12.70
2013,07,28,10,56,12.70
2013,07,28,10,57,12.80
2013,07,28,10,58,12.80
2013,07,28,10,59,12.90
2013,07,28,11,00,12.80
2013,07,28,11,01,12.80
2013,07,28,11,02,12.80
2013,07,28,11,03,12.80
2013,07,28,11,04,13.00
2013,07,28,11,05,13.00
2013,07,28,11,06,13.10
2013,07,28,11,07,13.10
2013,07,28,11,08,13.20
2013,07,28,11,09,13.30
2013,07,28,11,10,13.30
2013,07,28,11,11,13.30
2013,07,28,11,12,13.40
2013,07,28,11,13,13.50
2013,07,28,11,14,13.60
2013,07,28,11,15,13.60
2013,07,28,11,16,13.50
2013,07,28,11,17,13.50
2013,07,28,11,18,13.40
2013,07,28,11,19,13.30
2013,07,28,11,20,13.30
2013,07,28,11,21,13.30
2013,07,28,11,22,13.30
2013,07,28,11,23,13.30
2013,07,28,11,24,13.40
2013,07,28,11,25,13.40
2013,07,28,11,26,13.40
2013,07,28,11,27,13.40
2013,07,28,11,28,13.50
2013,07,28,11,29,13.60
2013,07,28,11,30,13.70
2013,07,28,11,31,13.70
2013,07,28,11,32,13.90
2013,07,28,11,33,14.00
2013,07,28,11,34,14.10
2013,07,28,11,35,14.00
2013,07,28,11,36,14.00
2013,07,28,11,37,13.80
2013,07,28,11,38,13.80
2013,07,28,11,39,13.80
2013,07,28,11,40,13.80
2013,07,28,11,41,13.80
2013,07,28,11,42,13.80
2013,07,28,11,43,13.70
2013,07,28,11,44,13.90
2013,07,28,11,45,14.00
2013,07,28,11,46,14.10
2013,07,28,11,47,14.20
2013,07,28,11,48,14.20
2013,07,28,11,49,14.10
2013,07,28,11,50,14.00
2013,07,28,11,51,13.90
2013,07,28,11,52,13.80
2013,07,28,11,53,13.90
2013,07,28,11,54,13.90
2013,07,28,11,55,13.90
2013,07,28,11,56,13.90
2013,07,28,11,57,13.80
2013,07,28,11,58,13.80
2013,07,28,11,59,13.80
2013,07,28,12,00,13.90
2013,07,28,12,01,13.90
2013,07,28,12,02,13.90
2013,07,28,12,03,13.90
2013,07,28,12,04,13.80
2013,07,28,12,05,13.70
2013,07,28,12,06,13.50
2013,07,28,12,07,13.50
2013,07,28,12,08,13.40
2013,07,28,12,09,13.50
2013,07,28,12,10,13.50
2013,07,28,12,11,13.60
2013,07,28,12,12,13.60
2013,07,28,12,13,13.60
2013,07,28,12,14,13.60
2013,07,28,12,15,13.60
2013,07,28,12,16,13.50
2013,07,28,12,17,13.50
2013,07,28,12,18,13.40
2013,07,28,12,19,13.30
2013,07,28,12,20,13.30
2013,07,28,12,21,13.50
2013,07,28,12,22,13.60
2013,07,28,12,23,13.70
2013,07,28,12,24,13.90
2013,07,28,12,25,14.00
2013,07,28,12,26,14.10
2013,07,28,12,27,14.20
2013,07,28,12,28,14.10
2013,07,28,12,29,14.00
2013,07,28,12,30,13.90
2013,07,28,12,31,13.90
2013,07,28,12,32,14.00
2013,07,28,12,33,14.20
2013,07,28,12,34,14.30
2013,07,28,12,35,14.50
2013,07,28,12,36,14.60
2013,07,28,12,37,14.60
2013,07,28,12,38,14.50
2013,07,28,12,39,14.50
2013,07,28,12,40,14.60
2013,07,28,12,41,14.60
2013,07,28,12,42,14.60
2013,07,28,12,43,14.60
2013,07,28,12,44,14.60
2013,07,28,12,45,14.70
2013,07,28,12,46,14.80
2013,07,28,12,47,14.90
2013,07,28,12,48,15.00
2013,07,28,12,49,15.10
2013,07,28,12,50,15.10
2013,07,28,12,51,15.00
2013,07,28,12,52,14.80
2013,07,28,12,53,14.80
2013,07,28,12,54,14.80
2013,07,28,12,55,14.90
2013,07,28,12,56,14.80
2013,07,28,12,57,14.80
2013,07,28,12,58,14.80
2013,07,28,12,59,14.80
2013,07,28,13,00,14.80
2013,07,28,13,01,14.80
2013,07,28,13,02,14.80
2013,07,28,13,03,14.80
2013,07,28,13,04,14.70
2013,07,28,13,05,14.80
2013,07,28,13,06,14.80
2013,07,28,13,07,14.80
2013,07,28,13,08,14.90
2013,07,28,13,09,15.00
2013,07,28,13,10,15.20
2013,07,28,13,11,15.30
2013,07,28,13,12,15.50
2013,07,28,13,13,15.60
2013,07,28,13,14,15.70
2013,07,28,13,15,15.80
2013,07,28,13,16,15.90
2013,07,28,13,17,16.00
2013,07,28,13,18,16.10
2013,07,28,13,19,16.20
2013,07,28,13,20,16.20
2013,07,28,13,21,16.20
2013,07,28,13,22,16.20
2013,07,28,13,23,16.30
2013,07,28,13,24,16.40
2013,07,28,13,25,16.50
2013,07,28,13,26,16.60
2013,07,28,13,27,16.70
2013,07,28,13,28,16.90
2013,07,28,13,29,17.00
2013,07,28,13,30,17.20
2013,07,28,13,31,17.30
2013,07,28,13,32,17.40
2013,07,28,13,33,17.60
2013,07,28,13,34,17.80
2013,07,28,13,35,17.90
2013,07,28,13,36,18.00
2013,07,28,13,37,18.10
2013,07,28,13,38,18.20
2013,07,28,13,39,18.20
2013,07,28,13,40,18.00
2013,07,28,13,41,17.90
2013,07,28,13,42,17.70
2013,07,28,13,43,17.50
2013,07,28,13,44,17.30
2013,07,28,13,45,17.30
2013,07,28,13,46,17.30
2013,07,28,13,47,17.20
2013,07,28,13,48,17.20
2013,07,28,13,49,17.10
2013,07,28,13,50,17.00
2013,07,28,13,51,17.00
2013,07,28,13,52,17.10
2013,07,28,13,53,17.20
2013,07,28,13,54,17.30
2013,07,28,13,55,17.30
2013,07,28,13,56,17.30
2013,07,28,13,57,17.50
2013,07,28,13,58,17.60
2013,07,28,13,59,17.80
2013,07,28,14,00,17.90
2013,07,28,14,01,18.10
2013,07,28,14,02,18.20
2013,07,28,14,03,18.30
2013,07,28,14,04,18.50
2013,07,28,14,05,18.60
2013,07,28,14,06,18.60
2013,07,28,14,07,18.70
2013,07,28,14,08,18.80
2013,07,28,14,09,18.80
2013,07,28,14,10,18.90
2013,07,28,14,11,19.00
2013,07,28,14,12,19.10
2013,07,28,14,13,19.10
2013,07,28,14,14,19.20
2013,07,28,14,15,19.20
2013,07,28,14,16,19.30
2013,07,28,14,17,19.30
2013,07,28,14,18,19.30
2013,07,28,14,19,19.40
2013,07,28,14,20,19.30
2013,07,28,14,21,19.30
2013,07,28,14,22,19.20
2013,07,28,14,23,19.20
2013,07,28,14,24,19.30
2013,07,28,14,25,19.30
2013,07,28,14,26,19.20
2013,07,28,14,27,19.00
2013,07,28,14,28,18.90
2013,07,28,14,29,18.90
2013,07,28,14,30,18.90
2013,07,28,14,31,18.80
2013,07,28,14,32,18.70
2013,07,28,14,33,18.60
2013,07,28,14,34,18.40
2013,07,28,14,35,18.30
2013,07,28,14,36,18.20
2013,07,28,14,37,18.20
2013,07,28,14,38,18.20
2013,07,28,14,39,18.20
2013,07,28,14,40,18.30
2013,07,28,14,41,18.40
2013,07,28,14,42,18.50
2013,07,28,14,43,18.70
2013,07,28,14,44,18.90
2013,07,28,14,45,19.00
2013,07,28,14,46,19.10
2013,07,28,14,47,19.00
2013,07,28,14,48,18.90
2013,07,28,14,49,18.70
2013,07,28,14,50,18.60
2013,07,28,14,51,18.60
2013,07,28,14,52,18.50
2013,07,28,14,53,18.60
2013,07,28,14,54,18.60
2013,07,28,14,55,18.60
2013,07,28,14,56,18.60
2013,07,28,14,57,18.60
2013,07,28,14,58,18.70
2013,07,28,14,59,18.70
2013,07,28,15,00,18.80
2013,07,28,15,01,18.80
2013,07,28,15,02,18.90
2013,07,28,15,03,18.90
2013,07,28,15,04,19.00
2013,07,28,15,05,19.10
2013,07,28,15,06,19.20
2013,07,28,15,07,19.30
2013,07,28,15,08,19.40
2013,07,28,15,09,19.40
2013,07,28,15,10,19.40
2013,07,28,15,11,19.30
2013,07,28,15,12,19.10
2013,07,28,15,13,19.00
2013,07,28,15,14,18.90
2013,07,28,15,15,18.90
2013,07,28,15,16,18.90
2013,07,28,15,17,18.80
2013,07,28,15,18,18.80
2013,07,28,15,19,18.80
2013,07,28,15,20,18.80
2013,07,28,15,21,18.80
2013,07,28,15,22,18.70
2013,07,28,15,23,18.70
2013,07,28,15,24,18.80
2013,07,28,15,25,18.80
2013,07,28,15,26,18.90
2013,07,28,15,27,18.90
2013,07,28,15,28,18.90
2013,07,28,15,29,18.90
2013,07,28,15,30,18.90
2013,07,28,15,31,18.90
2013,07,28,15,32,18.90
2013,07,28,15,33,18.90
2013,07,28,15,34,18.90
2013,07,28,15,35,18.90
2013,07,28,15,36,18.90
2013,07,28,15,37,18.90
2013,07,28,15,38,18.90
2013,07,28,15,39,18.90
2013,07,28,15,40,18.90
2013,07,28,15,41,18.90
2013,07,28,15,42,18.90
2013,07,28,15,43,18.90
2013,07,28,15,44,19.00
2013,07,28,15,45,19.10
2013,07,28,15,46,19.10
2013,07,28,15,47,19.10
2013,07,28,15,48,19.10
2013,07,28,15,49,19.10
2013,07,28,15,50,19.10
2013,07,28,15,51,19.20
2013,07,28,15,52,19.30
2013,07,28,15,53,19.40
2013,07,28,15,54,19.50
2013,07,28,15,55,19.60
2013,07,28,15,56,19.70
2013,07,28,15,57,19.80
2013,07,28,15,58,19.90
2013,07,28,15,59,20.00
2013,07,28,16,00,20.10
2013,07,28,16,01,20.20
2013,07,28,16,02,20.20
2013,07,28,16,03,20.30
2013,07,28,16,04,20.30
2013,07,28,16,05,20.30
2013,07,28,16,06,20.30
2013,07,28,16,07,20.40
2013,07,28,16,08,20.40
2013,07,28,16,09,20.40
2013,07,28,16,10,20.40
2013,07,28,16,11,20.30
2013,07,28,16,12,20.30
2013,07,28,16,13,20.40
2013,07,28,16,14,20.50
2013,07,28,16,15,20.70
2013,07,28,16,16,20.80
2013,07,28,16,17,20.80
2013,07,28,16,18,20.80
2013,07,28,16,19,20.90
2013,07,28,16,20,21.00
2013,07,28,16,21,21.00
2013,07,28,16,22,21.10
2013,07,28,16,23,21.20
2013,07,28,16,24,21.30
2013,07,28,16,25,21.40
2013,07,28,16,26,21.40
2013,07,28,16,27,21.40
2013,07,28,16,28,21.40
2013,07,28,16,29,21.50
2013,07,28,16,30,21.60
2013,07,28,16,31,21.60
2013,07,28,16,32,21.60
2013,07,28,16,33,21.60
2013,07,28,16,34,21.70
2013,07,28,16,35,21.80
2013,07,28,16,36,21.90
2013,07,28,16,37,22.00
2013,07,28,16,38,22.10
2013,07,28,16,39,22.10
2013,07,28,16,40,22.10
2013,07,28,16,41,22.00
2013,07,28,16,42,21.90
2013,07,28,16,43,21.80
2013,07,28,16,44,21.80
2013,07,28,16,45,21.80
2013,07,28,16,46,21.80
2013,07,28,16,47,21.80
2013,07,28,16,48,21.80
2013,07,28,16,49,21.80
2013,07,28,16,50,21.80
2013,07,28,16,51,21.80
2013,07,28,16,52,21.70
2013,07,28,16,53,21.70
2013,07,28,16,54,21.70
2013,07,28,16,55,21.70
2013,07,28,16,56,21.70
2013,07,28,16,57,21.70
2013,07,28,16,58,21.70
2013,07,28,16,59,21.80
2013,07,28,17,00,22.00
2013,07,28,17,01,22.00
2013,07,28,17,02,22.10
2013,07,28,17,03,22.10
2013,07,28,17,04,22.10
2013,07,28,17,05,22.00
2013,07,28,17,06,22.00
2013,07,28,17,07,21.90
2013,07,28,17,08,21.80
2013,07,28,17,09,21.70
2013,07,28,17,10,21.60
2013,07,28,17,11,21.60
2013,07,28,17,12,21.60
2013,07,28,17,13,21.60
2013,07,28,17,14,21.60
2013,07,28,17,15,21.60
2013,07,28,17,16,21.60
2013,07,28,17,17,21.60
2013,07,28,17,18,21.60
2013,07,28,17,19,21.60